Time,TemperatureF,DewpointF,PressureIn,WindDirection,WindDirectionDegrees,WindSpeedMPH,WindSpeedGustMPH,Humidity,HourlyPrecipIn,Conditions,Clouds,dailyrainin,SoftwareType,DateUTC
2013-12-01 00:12:00,24.0,22.0,29.96,SW,221,0.0,0.0,93,0.00,,,0.01,,2013-12-01 07:12:00,
2013-12-01 00:42:00,24.0,22.0,29.95,SW,221,0.0,0.0,93,0.00,,,0.01,,2013-12-01 07:42:00,
2013-12-01 00:52:00,24.0,22.0,29.94,SW,221,0.0,0.0,93,0.00,,,0.01,,2013-12-01 07:52:00,
2013-12-01 01:42:00,24.0,22.0,29.93,SW,221,0.0,0.0,93,0.00,,,0.01,,2013-12-01 08:42:00,
2013-12-01 01:52:00,25.0,23.0,29.93,SW,221,0.0,0.0,93,0.00,,,0.01,,2013-12-01 08:52:00,
2013-12-01 02:11:00,25.0,24.0,29.93,SW,221,0.0,0.0,94,0.00,,,0.01,,2013-12-01 09:11:00,
2013-12-01 02:43:00,25.0,23.0,29.92,SW,221,0.0,1.0,93,0.00,,,0.01,,2013-12-01 09:43:00,
2013-12-01 02:54:00,25.0,23.0,29.91,SW,221,0.0,0.0,93,0.00,,,0.01,,2013-12-01 09:54:00,
2013-12-01 03:12:00,25.0,23.0,29.91,SW,221,0.0,4.0,93,0.00,,,0.01,,2013-12-01 10:12:00,
2013-12-01 03:42:00,25.0,23.0,29.90,SW,221,0.0,0.0,93,0.00,,,0.01,,2013-12-01 10:42:00,
2013-12-01 03:53:00,26.0,25.0,29.90,SW,221,0.0,3.0,94,0.00,,,0.01,,2013-12-01 10:53:00,
2013-12-01 04:42:00,27.0,26.0,29.90,SW,221,0.0,3.0,94,0.00,,,0.01,,2013-12-01 11:42:00,
2013-12-01 04:52:00,27.0,25.0,29.88,SW,221,0.0,4.0,93,0.00,,,0.01,,2013-12-01 11:52:00,
2013-12-01 05:52:00,26.0,25.0,29.87,SW,220,1.0,8.0,94,0.00,,,0.01,,2013-12-01 12:52:00,
2013-12-01 06:11:00,26.0,25.0,29.87,SW,220,1.0,8.0,94,0.00,,,0.01,,2013-12-01 13:11:00,
2013-12-01 06:42:00,26.0,24.0,29.88,SW,221,0.0,2.0,93,0.00,,,0.01,,2013-12-01 13:42:00,
2013-12-01 06:52:00,26.0,24.0,29.86,SW,220,2.0,5.0,93,0.00,,,0.01,,2013-12-01 13:52:00,
2013-12-01 07:12:00,26.0,24.0,29.86,SW,220,1.0,4.0,93,0.00,,,0.01,,2013-12-01 14:12:00,
2013-12-01 07:52:00,25.0,23.0,29.86,SW,220,3.0,5.0,93,0.00,,,0.01,,2013-12-01 14:52:00,
2013-12-01 08:43:00,25.0,24.0,29.85,SW,220,1.0,5.0,94,0.00,,,0.01,,2013-12-01 15:43:00,
2013-12-01 08:53:00,26.0,25.0,29.85,SW,220,3.0,7.0,94,0.00,,,0.01,,2013-12-01 15:53:00,
2013-12-01 09:13:00,27.0,26.0,29.85,SW,220,3.0,7.0,94,0.00,,,0.01,,2013-12-01 16:13:00,
2013-12-01 09:23:00,28.0,27.0,29.84,SW,220,3.0,5.0,94,0.00,,,0.01,,2013-12-01 16:23:00,
2013-12-01 09:43:00,29.0,27.0,29.83,SW,220,0.0,4.0,94,0.00,,,0.01,,2013-12-01 16:43:00,
2013-12-01 09:52:00,29.0,27.0,29.83,SW,220,3.0,5.0,94,0.00,,,0.01,,2013-12-01 16:52:00,
2013-12-01 10:12:00,30.0,28.0,29.83,SW,220,2.0,5.0,94,0.00,,,0.01,,2013-12-01 17:12:00,
2013-12-01 10:42:00,32.0,30.0,29.81,SW,220,2.0,5.0,94,0.00,,,0.01,,2013-12-01 17:42:00,
2013-12-01 10:52:00,33.0,31.0,29.81,SW,220,3.0,5.0,93,0.00,,,0.01,,2013-12-01 17:52:00,
2013-12-01 11:12:00,35.0,33.0,29.80,SW,218,3.0,6.0,92,0.00,,,0.01,,2013-12-01 18:12:00,
2013-12-01 11:22:00,37.0,34.0,29.79,SW,216,2.0,5.0,90,0.00,,,0.01,,2013-12-01 18:22:00,
2013-12-01 11:42:00,38.0,34.0,29.77,SW,216,2.0,5.0,86,0.00,,,0.01,,2013-12-01 18:42:00,
2013-12-01 11:52:00,39.0,35.0,29.76,SW,216,2.0,4.0,84,0.00,,,0.01,,2013-12-01 18:52:00,
2013-12-01 12:11:00,39.0,34.0,29.75,SW,216,0.0,4.0,83,0.00,,,0.01,,2013-12-01 19:11:00,
2013-12-01 12:21:00,40.0,35.0,29.74,SW,216,1.0,2.0,81,0.00,,,0.01,,2013-12-01 19:21:00,
2013-12-01 12:42:00,40.0,34.0,29.73,SW,216,0.0,0.0,80,0.00,,,0.00,,2013-12-01 19:42:00,
2013-12-01 12:52:00,41.0,35.0,29.72,SW,216,0.0,0.0,79,0.00,,,0.00,,2013-12-01 19:52:00,
2013-12-01 13:11:00,40.0,34.0,29.70,SW,216,0.0,0.0,79,0.00,,,0.00,,2013-12-01 20:11:00,
2013-12-01 13:21:00,40.0,34.0,29.69,SW,216,0.0,0.0,80,0.00,,,0.00,,2013-12-01 20:21:00,
2013-12-01 13:42:00,41.0,35.0,29.68,SW,216,0.0,0.0,78,0.00,,,0.00,,2013-12-01 20:42:00,
2013-12-01 13:52:00,41.0,35.0,29.67,SW,216,0.0,0.0,78,0.00,,,0.00,,2013-12-01 20:52:00,
2013-12-01 14:12:00,41.0,35.0,29.66,SW,216,0.0,0.0,79,0.00,,,0.00,,2013-12-01 21:12:00,
2013-12-01 14:22:00,40.0,34.0,29.65,SW,216,0.0,0.0,79,0.00,,,0.00,,2013-12-01 21:22:00,
2013-12-01 14:43:00,40.0,34.0,29.65,SW,216,0.0,0.0,79,0.00,,,0.00,,2013-12-01 21:43:00,
2013-12-01 14:53:00,40.0,34.0,29.64,SW,216,0.0,0.0,80,0.00,,,0.00,,2013-12-01 21:53:00,
2013-12-01 15:22:00,39.0,34.0,29.64,SW,216,0.0,0.0,81,0.00,,,0.00,,2013-12-01 22:22:00,
2013-12-01 15:42:00,39.0,34.0,29.63,SW,216,0.0,0.0,81,0.00,,,0.00,,2013-12-01 22:42:00,
2013-12-01 15:52:00,39.0,34.0,29.62,SW,216,0.0,0.0,81,0.00,,,0.00,,2013-12-01 22:52:00,
2013-12-01 16:12:00,38.0,33.0,29.63,SW,216,0.0,0.0,82,0.00,,,0.00,,2013-12-01 23:12:00,
2013-12-01 16:22:00,38.0,33.0,29.62,SW,216,0.0,0.0,83,0.00,,,0.00,,2013-12-01 23:22:00,
2013-12-01 16:42:00,38.0,33.0,29.62,SW,216,0.0,0.0,83,0.00,,,0.00,,2013-12-01 23:42:00,
2013-12-01 16:52:00,37.0,33.0,29.62,SW,216,0.0,0.0,84,0.00,,,0.00,,2013-12-01 23:52:00,
2013-12-01 17:11:00,37.0,33.0,29.61,SW,216,0.0,0.0,85,0.00,,,0.00,,2013-12-02 00:11:00,
2013-12-01 17:21:00,36.0,32.0,29.60,SW,216,0.0,0.0,86,0.00,,,0.00,,2013-12-02 00:21:00,
2013-12-01 17:42:00,36.0,32.0,29.60,SW,216,0.0,0.0,86,0.00,,,0.00,,2013-12-02 00:42:00,
2013-12-01 17:52:00,36.0,33.0,29.59,SW,216,0.0,0.0,87,0.00,,,0.00,,2013-12-02 00:52:00,
2013-12-01 18:11:00,36.0,33.0,29.59,SW,216,0.0,0.0,88,0.00,,,0.00,,2013-12-02 01:11:00,
2013-12-01 18:21:00,36.0,33.0,29.58,SW,216,0.0,0.0,88,0.01,,,0.01,,2013-12-02 01:21:00,
2013-12-01 18:42:00,36.0,33.0,29.57,SW,216,0.0,0.0,89,0.01,,,0.01,,2013-12-02 01:42:00,
2013-12-01 18:52:00,36.0,33.0,29.57,SW,216,0.0,0.0,89,0.01,,,0.01,,2013-12-02 01:52:00,
2013-12-01 19:11:00,36.0,33.0,29.57,SW,216,0.0,3.0,90,0.01,,,0.01,,2013-12-02 02:11:00,
2013-12-01 19:21:00,35.0,32.0,29.56,SW,216,0.0,0.0,90,0.00,,,0.01,,2013-12-02 02:21:00,
2013-12-01 19:52:00,35.0,32.0,29.56,SW,216,0.0,0.0,90,0.00,,,0.01,,2013-12-02 02:52:00,
2013-12-01 20:11:00,36.0,34.0,29.55,SW,216,0.0,4.0,91,0.00,,,0.01,,2013-12-02 03:11:00,
2013-12-01 20:22:00,37.0,35.0,29.55,SW,217,0.0,7.0,91,0.00,,,0.01,,2013-12-02 03:22:00,
2013-12-01 20:43:00,37.0,35.0,29.54,SW,218,3.0,6.0,92,0.00,,,0.01,,2013-12-02 03:43:00,
2013-12-01 20:53:00,37.0,35.0,29.54,SW,217,0.0,4.0,92,0.01,,,0.02,,2013-12-02 03:53:00,
2013-12-01 21:13:00,37.0,35.0,29.53,SW,217,1.0,5.0,92,0.01,,,0.02,,2013-12-02 04:13:00,
2013-12-01 21:43:00,35.0,33.0,29.52,SW,217,0.0,0.0,92,0.03,,,0.04,,2013-12-02 04:43:00,
2013-12-01 21:53:00,35.0,33.0,29.51,SW,217,0.0,0.0,92,0.02,,,0.04,,2013-12-02 04:53:00,
2013-12-01 22:12:00,35.0,33.0,29.50,SW,217,0.0,0.0,93,0.02,,,0.04,,2013-12-02 05:12:00,
2013-12-01 22:23:00,35.0,33.0,29.50,SW,217,0.0,0.0,93,0.00,,,0.04,,2013-12-02 05:23:00,
2013-12-01 22:43:00,35.0,33.0,29.50,SW,217,0.0,0.0,93,0.00,,,0.04,,2013-12-02 05:43:00,
2013-12-01 22:53:00,35.0,33.0,29.49,SW,217,0.0,0.0,93,0.00,,,0.04,,2013-12-02 05:53:00,
2013-12-01 23:12:00,35.0,33.0,29.49,SW,217,0.0,0.0,93,0.01,,,0.05,,2013-12-02 06:12:00,
2013-12-01 23:22:00,36.0,34.0,29.49,SW,217,0.0,0.0,94,0.01,,,0.05,,2013-12-02 06:22:00,
2013-12-01 23:42:00,36.0,34.0,29.48,SW,217,0.0,0.0,94,0.01,,,0.05,,2013-12-02 06:42:00,
2013-12-01 23:52:00,36.0,34.0,29.47,SW,217,0.0,0.0,94,0.01,,,0.05,,2013-12-02 06:52:00,